Terug naar catalogus

COSMOS 970 DEB

ActiefLEO
NORAD 64990·DEBRIS·🇷🇺 Russia

Gelanceerd Dec 21, 1977 vanaf Baikonur Cosmodrome

Loading…

Volgende Passages (komende 24 uur)

TLE

VerouderendSource: Space-Track

Epoch: Sep 11, 2026, 06:47 UTC

1 64990U 77121DB  26254.28309005  .00000277  00000-0  36170-3 0  9998
2 64990  65.8724 207.4119 0117045 327.0662  32.3145 13.74107682641378

Volg COSMOS 970 DEB in realtime met AllMySat

Download on the App Store